Weather History for Cloquet, MN

Change the Weather History Date:

Sunday, March 10, 2013

  Actual Average Record
Temperature  
Mean Temperature 28 °F -  
Max Temperature 33 °F 29 °F 53 °F (2012)
Min Temperature 24 °F 11 °F -9 °F (2003)
Degree Days  
Heating Degree Days 36    
Moisture  
Dew Point 23 °F    
Average Humidity 80    
Maximum Humidity 93    
Minimum Humidity 69    
Precipitation  
Precipitation 0.00 in - - ()
Sea Level Pressure  
Sea Level Pressure 29.92 in    
Wind  
Wind Speed 7 mph (North)    
Max Wind Speed 13 mph    
Max Gust Speed 22 mph    
Visibility 9 miles    
Events      
Averages and records for this station are not official NWS values.
T = Trace of Precipitation, MM = Missing Value Source: NWS Daily Summary

Daily Weather History Graph

Daily Weather History Graph

Search for Another Location

Airport:

Trip Planner

Search our weather history database for the weather conditions in past years. The results will help you decide how hot, cold, wet, or windy it might be!

Date:

Astronomy

Mar. 10, 2013 Rise Set
Actual Time 7:32 AM CDT 7:09 PM CDT
Civil Twilight 7:01 AM CDT 7:39 PM CDT
Nautical Twilight 6:26 AM CDT 8:14 PM CDT
Astronomical Twilight 5:51 AM CDT 8:50 PM CDT
Moon 6:34 AM CDT (3/10) 6:16 PM CDT (3/10)
Length of Visible Light 12h 37m
Length of Day
11h 37m
Waning Crescent, 2% of the Moon is Illuminated
Mar 10
Waning Crescent
Mar 11
New
Mar 19
First Quarter
Mar 27
Full
Apr 2
Last Quarter

Hourly Weather History & Observations

Time (CDT) Temp. Windchill Dew Point Humidity Pressure Visibility Wind Dir Wind Speed Gust Speed Precip Events Conditions
12:16 AM 33.8 °F 30.8 °F 30.2 °F 87% 29.77 in 10.0 mi NW 3.5 mph - N/A   Overcast
12:36 AM 33.8 °F 30.8 °F 30.2 °F 87% 29.78 in 10.0 mi NW 3.5 mph - N/A   Overcast
12:55 AM 33.8 °F 29.6 °F 30.2 °F 87% 29.78 in 10.0 mi NW 4.6 mph - N/A   Overcast
1:16 AM 33.8 °F 29.6 °F 28.4 °F 81% 29.79 in 10.0 mi NW 4.6 mph - N/A   Overcast
1:36 AM 33.8 °F 28.6 °F 28.4 °F 81% 29.79 in 10.0 mi NW 5.8 mph - N/A   Overcast
1:56 AM 32.0 °F 27.5 °F 28.4 °F 87% 29.80 in 10.0 mi NW 4.6 mph - N/A   Overcast
3:16 AM 32.0 °F 25.6 °F 28.4 °F 87% 29.79 in 10.0 mi NW 6.9 mph - N/A   Overcast
3:36 AM 32.0 °F 24.2 °F 28.4 °F 87% 29.79 in 10.0 mi NNW 9.2 mph - N/A   Overcast
3:56 AM 32.0 °F 24.8 °F 26.6 °F 80% 29.79 in 10.0 mi NNW 8.1 mph - N/A   Overcast
4:15 AM 30.2 °F 21.9 °F 28.4 °F 93% 29.80 in 10.0 mi NNW 9.2 mph - N/A   Overcast
4:35 AM 32.0 °F 25.6 °F 28.4 °F 87% 29.81 in 10.0 mi NW 6.9 mph - N/A   Overcast
4:56 AM 30.2 °F 23.4 °F 26.6 °F 86% 29.83 in 10.0 mi NW 6.9 mph - N/A   Overcast
5:13 AM 30.2 °F 22.6 °F 26.6 °F 86% 29.82 in 10.0 mi NNW 8.1 mph - N/A   Overcast
5:36 AM 32.0 °F 25.6 °F 28.4 °F 87% 29.84 in 7.0 mi NNW 6.9 mph - N/A   Overcast
5:56 AM 32.0 °F 25.6 °F 28.4 °F 87% 29.84 in 7.0 mi NNW 6.9 mph - N/A   Overcast
6:15 AM 32.0 °F 24.2 °F 28.4 °F 87% 29.83 in 7.0 mi NNW 9.2 mph - N/A   Overcast
7:36 AM 32.0 °F 25.6 °F 26.6 °F 80% 29.88 in 10.0 mi NNW 6.9 mph - N/A   Overcast
7:55 AM 32.0 °F 24.2 °F 26.6 °F 80% 29.90 in 10.0 mi NNW 9.2 mph - N/A   Overcast
8:16 AM 30.2 °F 23.4 °F 26.6 °F 86% 29.89 in 10.0 mi North 6.9 mph 16.1 mph N/A   Overcast
8:35 AM 30.2 °F 22.6 °F 26.6 °F 86% 29.90 in 7.0 mi NNW 8.1 mph 16.1 mph N/A   Overcast
8:56 AM 30.2 °F 21.9 °F 26.6 °F 86% 29.93 in 4.0 mi NNW 9.2 mph - N/A   Overcast
9:16 AM 28.4 °F 18.0 °F 26.6 °F 93% 29.90 in 4.0 mi NNW 12.7 mph - N/A   Overcast
9:35 AM 28.4 °F 21.2 °F 24.8 °F 86% 29.95 in 4.0 mi North 6.9 mph - N/A   Overcast
9:56 AM 28.4 °F 24.6 °F 24.8 °F 86% 29.97 in 7.0 mi NNW 3.5 mph - N/A   Overcast
10:16 AM 28.4 °F 19.7 °F 24.8 °F 86% 29.98 in 5.0 mi NNW 9.2 mph - N/A   Overcast
10:35 AM 28.4 °F 19.7 °F 24.8 °F 86% 29.95 in 5.0 mi NNW 9.2 mph - N/A   Overcast
10:56 AM 28.4 °F 18.5 °F 24.8 °F 86% 29.96 in 5.0 mi NNW 11.5 mph 16.1 mph N/A   Overcast
11:15 AM 28.4 °F 19.1 °F 24.8 °F 86% 29.97 in 5.0 mi NNW 10.4 mph - N/A   Overcast
11:36 AM 28.4 °F 18.5 °F 24.8 °F 86% 29.97 in 5.0 mi NNW 11.5 mph 17.3 mph N/A   Overcast
11:55 AM 28.4 °F 19.1 °F 24.8 °F 86% 29.98 in 5.0 mi NNW 10.4 mph - N/A   Haze
12:16 PM 28.4 °F 21.2 °F 24.8 °F 86% 29.98 in 7.0 mi NNW 6.9 mph - N/A   Overcast
12:36 PM 28.4 °F 23.3 °F 24.8 °F 86% 29.98 in 7.0 mi North 4.6 mph - N/A   Overcast
12:55 PM 28.4 °F 23.3 °F 24.8 °F 86% 29.98 in 7.0 mi North 4.6 mph - N/A   Overcast
1:16 PM 28.4 °F 21.2 °F 24.8 °F 86% 29.98 in 10.0 mi North 6.9 mph - N/A   Overcast
1:36 PM 28.4 °F 20.4 °F 24.8 °F 86% 30.00 in 7.0 mi North 8.1 mph - N/A   Overcast
1:56 PM 30.2 °F 21.9 °F 23.0 °F 75% 29.98 in 10.0 mi North 9.2 mph - N/A   Overcast
2:15 PM 28.4 °F 18.5 °F 23.0 °F 80% 29.98 in 10.0 mi North 11.5 mph 18.4 mph N/A   Overcast
2:36 PM 28.4 °F 20.4 °F 21.2 °F 74% 29.96 in 10.0 mi North 8.1 mph 18.4 mph N/A   Overcast
2:56 PM 28.4 °F 19.1 °F 21.2 °F 74% 29.95 in 10.0 mi NNE 10.4 mph - N/A   Overcast
3:16 PM 28.4 °F 18.5 °F 21.2 °F 74% 29.95 in 10.0 mi North 11.5 mph 18.4 mph N/A   Overcast
3:36 PM 28.4 °F 21.2 °F 21.2 °F 74% 29.96 in 10.0 mi North 6.9 mph - N/A   Overcast
3:55 PM 28.4 °F 21.2 °F 21.2 °F 74% 29.98 in 10.0 mi North 6.9 mph 17.3 mph N/A   Overcast
4:16 PM 28.4 °F 19.7 °F 21.2 °F 74% 29.99 in 10.0 mi North 9.2 mph - N/A   Overcast
4:36 PM 28.4 °F 20.4 °F 21.2 °F 74% 29.98 in 10.0 mi North 8.1 mph - N/A   Overcast
4:55 PM 28.4 °F 20.4 °F 21.2 °F 74% 29.98 in 10.0 mi North 8.1 mph - N/A   Overcast
5:16 PM 28.4 °F 20.4 °F 21.2 °F 74% 29.97 in 10.0 mi North 8.1 mph 17.3 mph N/A   Overcast
5:36 PM 28.4 °F 20.4 °F 21.2 °F 74% 29.97 in 10.0 mi North 8.1 mph - N/A   Overcast
5:55 PM 28.4 °F 20.4 °F 21.2 °F 74% 29.96 in 10.0 mi North 8.1 mph - N/A   Overcast
6:16 PM 28.4 °F 19.7 °F 21.2 °F 74% 29.97 in 10.0 mi North 9.2 mph - N/A   Overcast
6:36 PM 26.6 °F 18.2 °F 19.4 °F 74% 29.96 in 10.0 mi North 8.1 mph - N/A   Overcast
6:55 PM 26.6 °F 19.1 °F 19.4 °F 74% 29.97 in 10.0 mi North 6.9 mph - N/A   Overcast
7:16 PM 26.6 °F 18.2 °F 19.4 °F 74% 29.96 in 10.0 mi NNE 8.1 mph - N/A   Overcast
7:36 PM 26.6 °F 17.5 °F 19.4 °F 74% 29.96 in 10.0 mi North 9.2 mph 17.3 mph N/A   Overcast
7:55 PM 26.6 °F 18.2 °F 19.4 °F 74% 29.97 in 10.0 mi NNE 8.1 mph - N/A   Overcast
8:15 PM 26.6 °F 19.1 °F 19.4 °F 74% 29.97 in 10.0 mi NNE 6.9 mph - N/A   Overcast
8:36 PM 26.6 °F 17.5 °F 17.6 °F 69% 29.96 in 10.0 mi NNE 9.2 mph - N/A   Overcast
8:56 PM 26.6 °F 19.1 °F 17.6 °F 69% 29.97 in 10.0 mi NNE 6.9 mph - N/A   Overcast
9:15 PM 24.8 °F 17.9 °F 17.6 °F 74% 29.98 in 10.0 mi NNE 5.8 mph - N/A   Overcast
9:36 PM 24.8 °F 19.1 °F 17.6 °F 74% 29.98 in 10.0 mi NNE 4.6 mph - N/A   Overcast
9:56 PM 24.8 °F 13.4 °F 17.6 °F 74% 29.97 in 10.0 mi NNE 12.7 mph 21.9 mph N/A   Overcast
10:15 PM 24.8 °F 15.3 °F 17.6 °F 74% 29.97 in 10.0 mi NNE 9.2 mph 18.4 mph N/A   Overcast
10:36 PM 24.8 °F 14.0 °F 15.8 °F 69% 29.96 in 10.0 mi NNE 11.5 mph 16.1 mph N/A   Overcast
10:56 PM 24.8 °F 14.6 °F 17.6 °F 74% 29.96 in 10.0 mi North 10.4 mph - N/A   Overcast
11:15 PM 24.8 °F 14.6 °F 17.6 °F 74% 29.95 in 10.0 mi NNE 10.4 mph 16.1 mph N/A   Overcast
11:36 PM 24.8 °F 16.1 °F 15.8 °F 69% 29.94 in 10.0 mi North 8.1 mph 16.1 mph N/A   Overcast
11:56 PM 24.8 °F 15.3 °F 15.8 °F 69% 29.93 in 10.0 mi NNE 9.2 mph - N/A   Overcast
12:15 AM 24.8 °F 16.9 °F 17.6 °F 74% 29.92 in 10.0 mi North 6.9 mph - N/A   Overcast
12:36 AM 24.8 °F 16.1 °F 17.6 °F 74% 29.91 in 10.0 mi North 8.1 mph - N/A   Overcast
12:56 AM 24.8 °F 16.9 °F 17.6 °F 74% 29.90 in 10.0 mi NNE 6.9 mph - N/A   Overcast